Content
SEND FEEDBACK

Daily
Averages
Monthly
Summary
United States of America

GLEN CANYON CITY, UTAH


Home > North America > United States > Utah
Elevation: 4133 feet     Latitude: 37 05N     Longitude: 111 40W

WEATHER
 
SELECT A DAY
Number of Records: 197,140;   Date Range: 1/1/95 - 10/22/14
 
SHARE

PRINT THIS DATA

[ ← Previous Day ]
WEATHER ALMANAC - JANUARY 27, 2013
[ Next Day → ]
[ °C ]   °F
Weather ElementAverageHighLow
Temperature41.7 °F52 °F (4:53 pm)37.9 °F (7:53 am)
Dewpoint38.4 °F43 °F (3:53 pm)26.1 °F (8:53 pm)
Humidity89.4 %100 % (12:07 am)39 % (8:53 pm)
Barometer29.87 in29.93 in (12:10 am)29.73 in (4:53 pm)
Wind Speed1.8 mph9.2 mph (8:53 pm)
Weather ElementAverage
Visibility3.4 mi
Wind DirectionENE (62.8 °)

Weather ElementTotal
Precipitation---
Heating Degree Days20.1 (Base 65)
Averaged from 60 records on January 27, 2013
WEATHER CONDITIONS BREAKOUT
WIND DIRECTION BREAKOUT
WEATHER BY HOUR - JANUARY 27, 2013
[ °C ]   °F
Local TimeTemperatureDewpointHumidityBarometerVisibilityWind DirectionWind SpeedGust SpeedPrecipitationEventsConditions
12:07 AM39.2 °F39.2 °F100 %29.92 in1.0 miCalmOvercast
12:10 AM39.2 °F39.2 °F100 %29.93 in3.0 miCalmOvercast
12:17 AM39.2 °F39.2 °F100 %29.93 in5.0 miCalmOvercast
12:32 AM41.0 °F39.2 °F93 %29.93 in7.0 miCalmOvercast
12:39 AM41.0 °F39.2 °F93 %29.93 in6.0 miNorth (350°)3.5 mphOvercast
12:53 AM41.0 °F39.0 °F93 %29.90 in5.0 miNorth (360°)3.5 mphOvercast
1:01 AM41.0 °F39.2 °F93 %29.92 in2.5 miNorth (10°)3.5 mphOvercast
1:08 AM41.0 °F39.2 °F93 %29.92 in1.2 miNNE (20°)4.6 mphOvercast
1:12 AM41.0 °F39.2 °F93 %29.92 in0.8 miCalmOvercast
1:19 AM41.0 °F39.2 °F93 %29.92 in0.5 miEast (80°)3.5 mphFogFog
1:48 AM39.2 °F39.2 °F100 %29.92 in0.2 miSE (140°)5.8 mphFogFog
1:53 AM39.9 °F39.0 °F97 %29.89 in0.2 miSSE (150°)5.8 mphFogFog
2:06 AM39.2 °F39.2 °F100 %29.92 in2.0 miSE (140°)3.5 mphOvercast
2:14 AM39.2 °F39.2 °F100 %29.92 in4.0 miCalmOvercast
2:24 AM39.2 °F39.2 °F100 %29.92 in5.0 miCalmOvercast
2:53 AM39.9 °F39.0 °F97 %29.89 in8.0 miCalmOvercast
3:53 AM41.0 °F39.0 °F93 %29.89 in5.0 miCalmOvercast
4:06 AM41.0 °F39.2 °F93 %29.91 in2.5 miCalmOvercast
4:13 AM41.0 °F39.2 °F93 %29.91 in4.0 miCalmOvercast
4:41 AM41.0 °F39.2 °F93 %29.90 in2.5 miCalmOvercast
4:50 AM39.2 °F39.2 °F100 %29.91 in0.8 miCalmOvercast
4:51 AM41.0 °F39.0 °F93 %29.88 in0.8 miCalmOvercast
5:00 AM41.0 °F39.2 °F93 %29.90 in0.5 miCalmFogFog
5:09 AM41.0 °F39.2 °F93 %29.90 in0.2 miCalmFogFog
5:22 AM39.2 °F39.2 °F100 %29.90 in0.5 miCalmFogFog
5:31 AM39.2 °F39.2 °F100 %29.90 in1.0 miCalmOvercast
5:40 AM39.2 °F39.2 °F100 %29.90 in0.5 miCalmFogFog
5:51 AM39.2 °F39.2 °F100 %29.90 in0.5 miCalm0.00 inFog-RainLight Rain
5:53 AM39.9 °F39.0 °F97 %29.88 in0.8 miCalm0.00 inRainLight Rain
6:01 AM39.2 °F39.2 °F100 %29.90 in1.5 miCalm0.00 inOvercast
6:14 AM39.2 °F39.2 °F100 %29.91 in0.5 miCalm0.00 inFogFog
6:49 AM39.2 °F39.2 °F100 %29.91 in0.5 miSSE (160°)5.8 mph0.00 inFog-RainLight Rain
6:53 AM39.9 °F37.9 °F93 %29.88 in0.2 miSouth (180°)3.5 mph0.00 inFog-RainLight Rain
7:19 AM39.2 °F37.4 °F93 %29.92 in0.2 miSW (220°)3.5 mph0.00 inFogFog
7:34 AM39.2 °F37.4 °F93 %29.92 in1.0 miCalm0.00 inOvercast
7:42 AM39.2 °F37.4 °F93 %29.92 in1.0 miCalm0.00 inOvercast
7:49 AM39.2 °F37.4 °F93 %29.92 in0.2 miCalm0.00 inFogFog
7:53 AM37.9 °F37.0 °F97 %29.90 in0.2 miSW (220°)3.5 mph0.00 inFogFog
8:53 AM39.0 °F37.9 °F96 %29.91 in0.2 miCalmFogFog
9:53 AM39.9 °F39.0 °F97 %29.91 in0.2 miCalmFogFog
10:53 AM41.0 °F39.9 °F96 %29.91 in0.2 miCalmFogFog
11:53 AM41.0 °F39.9 °F96 %29.89 in0.2 miCalmFogFog
12:33 PM41.0 °F39.2 °F93 %29.90 in2.0 miCalmOvercast
12:40 PM42.8 °F39.2 °F87 %29.89 in5.0 miCalmOvercast
12:53 PM43.0 °F39.9 °F89 %29.86 in5.0 miCalmOvercast
1:53 PM44.1 °F39.9 °F85 %29.82 in7.0 miCalmOvercast
2:45 PM44.6 °F41.0 °F87 %29.82 in5.0 miCalmMostly Cloudy
2:53 PM45.0 °F41.0 °F86 %29.78 in4.0 miNorth (10°)4.6 mphMostly Cloudy
3:03 PM44.6 °F41.0 °F87 %29.81 in2.5 miCalmOvercast
3:12 PM44.6 °F42.8 °F93 %29.81 in3.0 miCalmOvercast
3:37 PM46.4 °F42.8 °F87 %29.80 in6.0 miCalmHaze
3:53 PM46.9 °F43.0 °F86 %29.75 in7.0 miSouth (180°)8.1 mphOvercast
4:53 PM52.0 °F39.9 °F63 %29.73 in10.0 miSW (220°)4.6 mphPartly Cloudy
5:53 PM48.0 °F39.0 °F71 %29.74 in10.0 miNNW (330°)3.5 mphClear
6:53 PM48.0 °F37.0 °F66 %29.74 in10.0 miSouth (180°)3.5 mphClear
7:53 PM50.0 °F28.9 °F44 %29.74 in10.0 miSW (220°)4.6 mphClear
8:53 PM50.0 °F26.1 °F39 %29.73 in10.0 miSouth (190°)9.2 mphClear
9:53 PM48.0 °F27.0 °F44 %29.73 in10.0 miSSW (200°)9.2 mphClear
10:53 PM45.0 °F27.0 °F49 %29.75 in10.0 miSSW (210°)3.5 mphClear
11:53 PM42.1 °F33.1 °F70 %29.77 in10.0 miVariable4.6 mphClear
Hourly data recorded from KPGA, located miles away from Glen Canyon City, Utah







STORIES FROM OUR PARTNERS